Location: Newark
(17.9939°S, 31.0481°E)
Time: 14:09:57
(UTC+00:00)

Courier 1B - Pass Details

Date: 19 November 2019
Orbit: 963 x 1209 km, 28.3° (Epoch: 12 December)

Event Time Altitude Azimuth Distance (km) Brightness Sun altitude
Rises 19:41:54 0° 245° (WSW) 4,072 11.4 -42.4°
Reaches altitude 10° 19:44:47 10° 241° (WSW) 3,128 10.7 -42.8°
Enters shadow 19:49:27 37° 221° (SW) 1,787 9.1 -43.5°
